Hourly Data Report for September 20, 2017

All times are specified in Local Standard Time (LST). Add 1 hour to adjust for Daylight Saving Time where and when it is observed.

EDMUNDSTON
NEW BRUNSWICK

47°25'00.000" N
68°19'28.040" W
154.20 m
8101303
71590
ERM

Download Data

Hourly Data (September 2017)
Hourly Data Report for September 20, 2017
Temp Definition
°C
Dew Point Temp Definition
°C
Rel Hum Definition
%
Wind Dir Definition
10's deg

Wind Spd Definition
km/h
Visibility Definition
km
Stn Press Definition
kPa
Hmdx Definition


Wind Chill Definition


Weather Definition


TIME
00:00 13.0 12.1 94 3 4   100.09     LegendNANA
01:00 12.1 11.3 95 3 4   100.07     LegendNANA
02:00 11.9 11.2 95 32 2   100.05     LegendNANA
03:00 11.1 10.3 95   0   100.02     LegendNANA
04:00 12.1 11.4 96   0   100.02     LegendNANA
05:00 12.6 12.0 96   0   100.04     LegendNANA
06:00 12.9 12.2 96 27 2   100.07     LegendNANA
07:00 13.1 12.5 96 25 1   100.11     LegendNANA
08:00 14.2 13.5 96 26 4   100.10     LegendNANA
09:00 17.0 15.9 94 24 5   100.12     LegendNANA
10:00 18.6 15.2 81 28 5   100.10     LegendNANA
11:00 21.2 14.5 65 30 4   100.04 25   LegendNANA
12:00 22.6 13.0 55 23 6   100.00 25   LegendNANA
13:00 23.8 10.9 44 34 5   99.96 26   LegendNANA
14:00 24.7 9.4 38 2 9   99.93 26   LegendNANA
15:00 25.2 7.0 31 34 14   99.91 25   LegendNANA
16:00 24.6 7.1 33 36 12   99.91 25   LegendNANA
17:00 23.2 7.0 35 36 12   99.91     LegendNANA
18:00 20.3 7.1 42 33 6   99.96     LegendNANA
19:00 12.8 8.7 76 34 9   99.98     LegendNANA
20:00 10.8 7.7 81 34 2   100.02     LegendNANA
21:00 8.7 7.2 90 31 2   100.13     LegendNANA
22:00 7.1 5.7 91 34 5   100.16     LegendNANA
23:00 6.9 5.8 93 31 4   100.17     LegendNANA

Notes on Data Quality.

Legend

  • E = Estimated
  • M = Missing
  • NA = Not Available
  • ‡ = Partner data that is not subject to review by the National Climate Archives
Date modified: